Date String (YYYY-MM-DD hh:mm:ss) UTC,Instrument flags,Ambient pressure (hPa),Sample flow (lpm),Bypass flow (lpm),Sample temperature (°C),Ambient temperature (°C),ASC tube jacket temperature (°C),LED temperature (°C),Box temperature (°C),Sample RH (%),Span deviation,Mass concentration (μg/m³),Mass concentration (μg/m³),Mass concentration (μg/m³)
DateTimeUTC,F1_M11,P_M11,Q1_M11,Q2_M11,T1_M11,T2_M11,T3_M11,T4_M11,T5_M11,U1_M11,ZSPAN_M11,X0_M11,X2_M11,X1_M11
2022-07-07 03:00:00,,0828.9,5.00,0.00,32.3,28.3,00.0,40.4,32.7,34.6,0000.0,0008.58,0004.22,0003.46
2022-07-07 03:01:00,,0828.9,5.01,0.00,32.3,27.8,00.0,40.3,32.6,34.7,0000.0,0008.21,0004.25,0003.48
2022-07-07 03:02:00,,0828.9,5.00,0.00,32.1,27.7,00.0,40.3,32.4,35.0,0000.0,0008.59,0004.31,0003.49
2022-07-07 03:03:00,,0829.2,5.00,0.00,32.1,27.8,00.0,40.3,32.4,35.2,0000.0,0008.64,0004.31,0003.50
2022-07-07 03:04:00,,0829.3,4.98,0.00,32.3,27.9,00.0,40.3,32.6,34.9,0000.0,0008.75,0004.34,0003.50
2022-07-07 03:05:00,,0829.4,5.01,0.00,32.4,28.0,00.0,40.3,32.6,34.7,0000.0,0009.30,0004.35,0003.50
2022-07-07 03:06:00,,0829.3,5.01,0.00,32.5,28.1,00.0,40.3,32.6,34.7,0000.0,0009.32,0004.32,0003.50
2022-07-07 03:07:00,,0829.3,4.99,0.00,32.4,28.3,00.0,40.3,32.5,34.8,0000.0,0009.54,0004.35,0003.51
2022-07-07 03:08:00,,0829.0,5.00,0.00,32.4,28.4,00.0,40.3,32.5,34.8,0000.0,0010.13,0004.40,0003.53
2022-07-07 03:09:00,,0829.1,5.00,0.00,32.4,28.5,00.0,40.3,32.5,34.9,0000.0,0010.34,0004.45,0003.55
2022-07-07 03:10:00,,0829.1,5.00,0.00,32.3,28.6,00.0,40.4,32.5,35.0,0000.0,0010.28,0004.47,0003.57
2022-07-07 03:11:00,,0828.8,5.00,0.00,32.4,28.7,00.0,40.4,32.7,34.9,0000.0,0010.68,0004.48,0003.57
2022-07-07 03:12:00,,0828.7,4.99,0.00,32.6,28.8,00.0,40.4,32.8,34.6,0000.0,0011.59,0004.47,0003.58
2022-07-07 03:13:00,,0829.0,5.00,0.00,32.6,28.9,00.0,40.4,32.8,34.5,0000.0,0011.76,0004.43,0003.58
2022-07-07 03:14:00,,0828.8,5.00,0.00,32.6,28.9,00.0,40.4,32.7,34.5,0000.0,0012.23,0004.48,0003.60
2022-07-07 03:15:00,,0828.9,5.00,0.00,32.6,29.0,00.0,40.5,32.7,34.5,0000.0,0012.54,0004.54,0003.63
2022-07-07 03:16:00,,0828.9,5.00,0.00,32.5,29.0,00.0,40.5,32.7,34.6,0000.0,0012.04,0004.61,0003.67
2022-07-07 03:17:00,,0828.5,4.99,0.00,32.5,29.0,00.0,40.5,32.7,34.7,0000.0,0012.34,0004.76,0003.72
2022-07-07 03:18:00,,0828.5,5.00,0.00,32.4,29.0,00.0,40.5,32.7,34.8,0000.0,0012.47,0004.83,0003.77
2022-07-07 03:19:00,,0828.5,5.00,0.00,32.3,29.1,00.0,40.6,32.7,34.8,0000.0,0012.22,0004.87,0003.79
2022-07-07 03:20:00,,0828.5,5.00,0.00,32.3,29.1,00.0,40.6,32.7,34.8,0000.0,0012.13,0004.88,0003.81
2022-07-07 03:21:00,,0828.5,5.01,0.00,32.2,29.1,00.0,40.6,32.7,34.8,0000.0,0012.09,0004.87,0003.81
2022-07-07 03:22:00,,0828.5,5.01,0.00,32.2,28.6,00.0,40.5,32.7,34.8,0000.0,0011.67,0004.89,0003.83
2022-07-07 03:23:00,,0828.4,5.00,0.00,32.1,28.0,00.0,40.4,32.6,34.9,0000.0,0011.01,0004.91,0003.83
2022-07-07 03:24:00,,0828.4,5.00,0.00,32.0,27.7,00.0,40.4,32.4,34.9,0000.0,0010.52,0004.93,0003.85
2022-07-07 03:25:00,,0828.4,5.00,0.00,31.9,27.7,00.0,40.3,32.3,35.2,0000.0,0010.17,0004.90,0003.85
2022-07-07 03:26:00,,0828.4,4.99,0.00,32.0,27.8,00.0,40.3,32.5,34.9,0000.0,0009.84,0004.84,0003.83
2022-07-07 03:27:00,,0828.5,5.00,0.00,32.1,27.9,00.0,40.3,32.5,34.5,0000.0,0009.68,0004.76,0003.80
2022-07-07 03:28:00,,0828.5,5.01,0.00,32.1,28.1,00.0,40.2,32.5,34.4,0000.0,0009.54,0004.67,0003.77
2022-07-07 03:29:00,,0828.5,5.00,0.00,32.1,28.2,00.0,40.2,32.5,34.4,0000.0,0009.28,0004.61,0003.72
2022-07-07 03:30:00,,0828.7,5.00,0.00,32.1,28.3,00.0,40.2,32.4,34.5,0000.0,0009.03,0004.54,0003.69
2022-07-07 03:31:00,,0829.0,4.99,0.00,32.1,28.4,00.0,40.2,32.5,34.5,0000.0,0008.87,0004.47,0003.68
2022-07-07 03:32:00,,0829.1,5.00,0.00,32.0,28.5,00.0,40.2,32.5,34.6,0000.0,0008.94,0004.46,0003.67
2022-07-07 03:33:00,,0829.0,5.00,0.00,32.0,28.6,00.0,40.2,32.5,34.8,0000.0,0009.25,0004.49,0003.65
2022-07-07 03:34:00,,0828.9,5.00,0.00,31.9,28.7,00.0,40.3,32.5,35.0,0000.0,0009.60,0004.52,0003.65
2022-07-07 03:35:00,,0829.1,5.00,0.00,31.9,28.8,00.0,40.2,32.5,34.9,0000.0,0009.49,0004.54,0003.65
2022-07-07 03:36:00,,0829.0,5.01,0.00,31.8,28.9,00.0,40.2,32.5,34.9,0000.0,0009.50,0004.58,0003.65
2022-07-07 03:37:00,,0828.9,5.01,0.00,31.8,28.9,00.0,40.2,32.6,35.1,0000.0,0009.41,0004.59,0003.65
2022-07-07 03:38:00,,0829.0,5.00,0.00,32.0,29.0,00.0,40.2,32.7,34.8,0000.0,0009.49,0004.63,0003.67
2022-07-07 03:39:00,,0829.1,5.00,0.00,32.1,29.0,00.0,40.2,32.7,34.6,0000.0,0009.50,0004.66,0003.68
2022-07-07 03:40:00,,0829.1,5.01,0.00,32.1,29.1,00.0,40.2,32.7,34.6,0000.0,0009.43,0004.66,0003.69
2022-07-07 03:41:00,,0829.0,5.00,0.00,32.1,29.1,00.0,40.3,32.7,34.7,0000.0,0009.98,0004.71,0003.71
2022-07-07 03:42:00,,0829.1,5.01,0.00,32.1,29.2,00.0,40.3,32.7,34.7,0000.0,0010.17,0004.76,0003.72
2022-07-07 03:43:00,,0828.9,5.01,0.00,32.1,29.1,00.0,40.3,32.7,34.8,0000.0,0010.21,0004.80,0003.74
2022-07-07 03:44:00,,0828.6,5.00,0.00,32.1,28.6,00.0,40.2,32.7,34.9,0000.0,0009.93,0004.79,0003.77
2022-07-07 03:45:00,,0828.4,4.99,0.00,32.0,28.0,00.0,40.2,32.6,35.1,0000.0,0009.50,0004.77,0003.79
2022-07-07 03:46:00,,0828.4,5.00,0.00,32.1,27.8,00.0,40.2,32.6,35.0,0000.0,0009.16,0004.74,0003.80
2022-07-07 03:47:00,,0828.4,5.00,0.00,32.1,27.8,00.0,40.2,32.5,34.8,0000.0,0009.34,0004.68,0003.79
2022-07-07 03:48:00,,0828.3,5.01,0.00,32.1,27.9,00.0,40.1,32.5,34.8,0000.0,0009.56,0004.70,0003.81
2022-07-07 03:49:00,,0828.3,5.00,0.00,32.1,28.0,00.0,40.1,32.4,34.8,0000.0,0009.62,0004.70,0003.81
2022-07-07 03:50:00,,0828.3,5.01,0.00,32.1,28.1,00.0,40.1,32.4,34.8,0000.0,0009.64,0004.66,0003.81
2022-07-07 03:51:00,,0828.3,4.99,0.00,32.0,28.3,00.0,40.2,32.4,35.0,0000.0,0009.81,0004.69,0003.83
2022-07-07 03:52:00,,0828.3,5.02,0.00,32.0,28.4,00.0,40.2,32.4,35.0,0000.0,0009.39,0004.68,0003.84
2022-07-07 03:53:00,,0828.3,5.00,0.00,32.1,28.5,00.0,40.2,32.5,34.7,0000.0,0009.33,0004.65,0003.84
2022-07-07 03:54:00,,0828.3,5.00,0.00,32.2,28.6,00.0,40.2,32.6,34.6,0000.0,0009.44,0004.62,0003.83
2022-07-07 03:55:00,,0828.3,4.99,0.00,32.2,28.7,00.0,40.2,32.5,34.5,0000.0,0009.99,0004.60,0003.82
2022-07-07 03:56:00,,0828.3,5.00,0.00,32.1,28.8,00.0,40.2,32.6,34.6,0000.0,0010.10,0004.62,0003.82
2022-07-07 03:57:00,,0828.3,5.00,0.00,32.1,28.8,00.0,40.2,32.6,34.6,0000.0,0010.32,0004.67,0003.83
2022-07-07 03:58:00,,0828.3,5.01,0.00,32.1,28.9,00.0,40.2,32.6,34.6,0000.0,0010.41,0004.70,0003.84
2022-07-07 03:59:00,,0828.4,5.00,0.00,32.0,29.0,00.0,40.2,32.6,34.7,0000.0,0010.57,0004.75,0003.86
